Terminal Aerodrome Forecast
Issued by NWS Tuscon, AZ

Home | Current Version | Previous Version | Text Only | Print | Product List | Glossary On
Versions: 1 2 3 4 5 6 7 8 9 10 11 12
000
FTUS45 KTWC 011700
TAFDUG
TAF
KDUG 011730Z 0118/0218 33007KT P6SM SKC
     FM012000 30010KT P6SM SCT090
     FM020200 35007KT P6SM FEW090
     FM020600 VRB04KT P6SM SKC=

USA.gov is the U.S. government's official web portal to all federal, state and local government web resources and services.